sat.trackr.live / text

‹ back to catalog

STARLINK-11484 [DTC]

NORAD 62277 · 2024-237L

PAYLOAD ACTIVE UNKNOWN

§ Identity

Operator
Country
US
Launch date
2024-12-08
Launch site
AFETR
Launch vehicle
Mass (kg)
RCS (m²)

Purposes: comms

External: N2YO · Heavens-Above · Gunter

§ Orbital elements

Epoch: 2026-09-21T11:30:02.365920Z

Period
91.67 min
Inclination
43.0028°
Eccentricity
0.0002672
Mean motion
15.70875179 rev/d
Perigee alt
354.6 km
Apogee alt
358.2 km
Semi-major
6,734.5 km
B*
1.0254e-3
RAAN
316.5738°
Arg perigee
316.3212°
Mean anomaly
43.7444°
Rev number
10,384

§ Raw data

STARLINK-11484 [DTC]1 62277U 24237L   26264.47919405  .00133460  00000+0  10254-2 0  99912 62277  43.0028 316.5738 0002672 316.3212  43.7444 15.70875179103843

JSON: /api/v1/satellites/62277 · /tle

For live sub-satellite position, see the globe view (requires WebGL).

§ Visibility from observer

Set your observer location to see the next 7 days of passes ≥ 10°. The values pass through the URL so the page stays shareable.

No JS? Fill the form by hand. The geolocation button needs JavaScript.